Le nostre stazioni meteo in Italia

Pubblicità
Il mio iltempo24.it
S. Maria Di Leuca, Italia (16360): Temperatura & dewpoint: 17.01.2019 05:00:00 - 23.01.2019 05:00:00 (CET)S. Maria Di Leuca, Italia (16360): velocità del vento: 17.01.2019 05:00:00 - 23.01.2019 05:00:00 (CET)S. Maria Di Leuca, Italia (16360): direzione del vento: 17.01.2019 05:00:00 - 23.01.2019 05:00:00 (CET)S. Maria Di Leuca, Italia (16360): reduced air pressure: 17.01.2019 05:00:00 - 23.01.2019 05:00:00 (CET)S. Maria Di Leuca, Italia (16360): visibility: 17.01.2019 05:00:00 - 23.01.2019 05:00:00 (CET)S. Maria Di Leuca, Italia (16360): ore di luce: 17.01.2019 05:00:00 - 23.01.2019 05:00:00 (CET)
Data & Tempo tt [°C] td [°C] ff [km/h] ff [kn] dd ppp [hPa] vv [km] sd [min]
23.01.2019 05:00:00 10,4 8,7 5 3 NE 1002,4 12 -
23.01.2019 04:00:00 10,6 9,4 8 4 O 1003,3 10 -
23.01.2019 03:00:00 11,0 9,4 8 4 O 1003,4 10 -
23.01.2019 02:00:00 11,4 9,8 11 6 OSO 1003,9 10 -
23.01.2019 01:00:00 11,4 9,0 16 9 SSO 1004,6 10 -
23.01.2019 00:00:00 12,0 9,0 8 4 S 1004,7 10 -
22.01.2019 23:00:00 12,0 8,3 4 2 ONO 1004,5 10 -
22.01.2019 22:00:00 12,0 8,5 4 2 SO 1004,5 10 -
22.01.2019 21:00:00 11,8 9,5 5 3 ONO 1004,5 10 -
22.01.2019 20:00:00 11,6 9,2 5 3 O 1004,4 10 -
22.01.2019 19:00:00 11,6 9,0 8 4 SO 1004,3 10 -
22.01.2019 18:00:00 11,6 9,0 9 5 SO 1004,0 10 -
22.01.2019 17:00:00 12,0 9,4 5 3 O 1004,1 10 12
22.01.2019 16:00:00 12,2 9,6 22 12 O 1004,2 10 0
22.01.2019 15:00:00 12,4 9,8 18 10 OSO 1004,3 10 18
22.01.2019 14:00:00 11,2 8,6 15 8 SSO 1004,7 10 0
22.01.2019 13:00:00 11,0 8,4 15 8 SE 1005,3 10 42
22.01.2019 12:00:00 11,0 8,4 18 10 SSE 1005,8 10 18
22.01.2019 11:00:00 10,6 8,0 11 6 SSE 1006,9 7 0
22.01.2019 10:00:00 10,6 8,2 13 7 SSE 1007,8 4,0 0
22.01.2019 09:00:00 10,6 8,2 9 5 S 1007,8 3,0 0
22.01.2019 08:00:00 11,0 8,4 5 3 SSO 1007,5 3,0 0
22.01.2019 07:00:00 11,0 8,6 8 4 SSO 1008,3 3,0 -
22.01.2019 06:00:00 11,0 8,6 18 10 S 1008,5 10 -
22.01.2019 05:00:00 11,0 8,6 15 8 S 1009,1 10 -
22.01.2019 04:00:00 11,0 8,6 18 10 SSO 1010,3 10 -
22.01.2019 03:00:00 11,4 9,1 21 11 S 1011,6 10 -
22.01.2019 02:00:00 11,2 9,3 8 4 SSE 1012,7 10 -
22.01.2019 01:00:00 11,4 9,1 15 8 S 1012,5 10 -
22.01.2019 00:00:00 11,4 9,5 15 8 S 1012,6 10 -
21.01.2019 23:00:00 11,8 10,0 11 6 S 1012,6 10 -
21.01.2019 22:00:00 11,8 9,9 24 13 S 1012,6 10 -
21.01.2019 21:00:00 11,8 10,5 21 11 S 1012,6 10 -
21.01.2019 20:00:00 11,8 10,5 11 6 S 1012,6 10 -
21.01.2019 19:00:00 12,0 10,7 13 7 S 1012,6 12 -
21.01.2019 18:00:00 12,0 10,7 11 6 S 1012,7 12 -
21.01.2019 17:00:00 12,2 11,1 9 5 S 1012,9 15 0
21.01.2019 16:00:00 12,4 11,3 9 5 S 1013,0 15 0
21.01.2019 15:00:00 12,8 11,7 11 6 S 1013,1 15 0
21.01.2019 14:00:00 13,0 11,4 9 5 S 1013,1 20 36
21.01.2019 13:00:00 12,8 11,0 11 6 S 1013,4 20 60
21.01.2019 12:00:00 12,8 10,9 11 6 SSE 1013,8 20 60
21.01.2019 11:00:00 12,6 10,8 13 7 SE 1014,3 20 60
21.01.2019 10:00:00 12,2 10,4 13 7 ESE 1014,1 20 60
21.01.2019 09:00:00 10,8 8,7 13 7 E 1013,8 20 60
21.01.2019 08:00:00 10,4 8,0 9 5 E 1013,7 20 36
21.01.2019 07:00:00 10,2 8,0 8 4 ENE 1013,6 12 0
21.01.2019 06:00:00 10,0 8,1 13 7 ENE 1013,6 10 -
21.01.2019 05:00:00 10,2 7,8 9 5 ENE 1013,6 10 -
21.01.2019 04:00:00 10,0 6,9 5 3 SSE 1014,4 10 -
21.01.2019 03:00:00 10,0 7,1 8 4 NNE 1014,4 10 -
21.01.2019 02:00:00 10,0 7,4 8 4 NNE 1014,3 8 -
21.01.2019 01:00:00 10,0 7,4 5 3 NNE 1014,5 8 -
21.01.2019 00:00:00 10,0 6,7 5 3 NE 1014,5 8 -
20.01.2019 23:00:00 9,0 5,9 8 4 NE 1014,5 10 -
20.01.2019 22:00:00 9,0 5,9 11 6 NE 1013,9 8 -
20.01.2019 21:00:00 10,0 6,9 9 5 NNE 1013,9 10 -
20.01.2019 20:00:00 10,2 7,1 9 5 NE 1013,6 10 -
20.01.2019 19:00:00 10,8 7,7 9 5 NE 1013,5 10 -
20.01.2019 18:00:00 11,0 7,9 9 5 ENE 1013,5 10 -
20.01.2019 17:00:00 11,4 9,0 9 5 ENE 1013,5 12 0
20.01.2019 16:00:00 12,4 10,0 8 4 E 1013,5 15 60
20.01.2019 15:00:00 13,4 8,0 5 3 SE 1013,4 15 60
20.01.2019 14:00:00 13,6 7,8 5 3 S 1013,4 15 60
20.01.2019 13:00:00 13,8 8,0 8 4 SO 1013,5 15 60
20.01.2019 12:00:00 13,6 8,2 5 3 S 1014,2 15 60
20.01.2019 11:00:00 13,0 9,6 4 2 SSE 1014,6 15 60
20.01.2019 10:00:00 11,6 8,3 4 2 S 1014,7 12 60
20.01.2019 09:00:00 9,6 6,1 4 2 NNE 1014,1 10 60
20.01.2019 08:00:00 9,4 6,1 8 4 N 1013,7 10 24
20.01.2019 07:00:00 9,4 6,0 8 4 NNE 1013,9 10 0
20.01.2019 06:00:00 10,0 6,7 8 4 N 1012,5 10 -
20.01.2019 05:00:00 10,0 6,7 8 4 N 1012,5 10 -
20.01.2019 04:00:00 10,0 6,7 11 6 N 1012,5 10 -
20.01.2019 03:00:00 10,0 6,7 15 8 N 1012,5 10 -
20.01.2019 02:00:00 10,0 6,7 11 6 N 1012,5 10 -
20.01.2019 01:00:00 10,0 6,7 9 5 NNE 1012,5 10 -
20.01.2019 00:00:00 11,0 7,7 11 6 N 1013,5 10 -
19.01.2019 23:00:00 11,0 7,7 5 3 NNO 1013,5 10 -
19.01.2019 22:00:00 11,0 7,7 5 3 E 1013,5 10 -
19.01.2019 21:00:00 11,0 7,7 18 10 ESE 1013,5 10 -
19.01.2019 20:00:00 11,0 7,7 15 8 N 1013,5 10 -
19.01.2019 19:00:00 11,0 7,9 16 9 SE 1012,8 7 -
19.01.2019 18:00:00 11,0 7,9 16 9 SE 1012,6 8 -
19.01.2019 17:00:00 11,0 8,0 18 10 SE 1012,6 6 0
19.01.2019 16:00:00 11,2 8,2 13 7 SSE 1012,7 12 0
19.01.2019 15:00:00 11,0 8,0 11 6 ESE 1013,3 12 0
19.01.2019 14:00:00 11,0 8,2 11 6 SE 1013,4 12 0
19.01.2019 13:00:00 11,0 8,4 5 3 SSE 1013,5 12 0
19.01.2019 12:00:00 11,2 8,2 5 3 S 1013,9 10 0
19.01.2019 11:00:00 10,2 7,3 4 2 SSO 1015,4 7 0
19.01.2019 10:00:00 10,2 7,1 9 5 SO 1015,4 9 0
19.01.2019 09:00:00 11,6 8,8 9 5 NNO 1014,5 10 0
19.01.2019 08:00:00 11,4 8,6 8 4 SSE 1014,4 10 0
19.01.2019 07:00:00 11,6 9,0 9 5 S 1014,0 10 0
19.01.2019 06:00:00 11,4 8,8 9 5 S 1014,0 10 -
19.01.2019 05:00:00 - - - - - - - -
19.01.2019 04:00:00 11,4 8,4 8 4 S 1014,3 10 -
19.01.2019 03:00:00 - - - - - - - -
19.01.2019 02:00:00 - - - - - - - -
19.01.2019 01:00:00 11,2 8,3 13 7 SSO 1015,1 10 -
19.01.2019 00:00:00 11,2 8,2 11 6 SSO 1015,1 10 -
18.01.2019 23:00:00 11,2 8,3 13 7 SSO 1015,1 10 -
18.01.2019 22:00:00 11,2 8,2 15 8 SSO 1015,1 10 -
18.01.2019 21:00:00 11,4 8,4 15 8 SSO 1015,1 10 -
18.01.2019 20:00:00 11,4 8,6 13 7 SSO 1015,1 10 -
18.01.2019 19:00:00 11,4 8,6 9 5 SSO 1015,1 10 -
18.01.2019 18:00:00 11,6 9,2 9 5 SO 1015,6 10 -
18.01.2019 17:00:00 11,6 9,2 15 8 SSO 1015,6 10 0
18.01.2019 16:00:00 11,6 9,2 16 9 SSO 1015,5 10 24
18.01.2019 15:00:00 11,6 9,2 18 10 SSO 1015,4 10 24
18.01.2019 14:00:00 11,6 9,2 21 11 SSO 1015,4 10 24
18.01.2019 13:00:00 11,6 8,6 22 12 SO 1015,5 10 30
18.01.2019 12:00:00 11,6 8,6 18 10 SO 1015,6 10 54
18.01.2019 11:00:00 11,6 8,6 16 9 SO 1016,4 10 48
18.01.2019 10:00:00 11,6 8,6 9 5 SO 1016,2 10 42
18.01.2019 09:00:00 11,2 8,1 5 3 S 1015,8 10 0
18.01.2019 08:00:00 11,2 8,1 8 4 SSE 1015,8 10 0
18.01.2019 07:00:00 11,2 8,1 11 6 SSE 1015,7 10 0
18.01.2019 06:00:00 12,2 9,0 15 8 S 1015,6 10 -
18.01.2019 05:00:00 12,2 9,1 16 9 S 1015,6 10 -
18.01.2019 04:00:00 12,0 8,8 21 11 SSO 1016,2 10 -
18.01.2019 03:00:00 12,0 9,0 18 10 SSO 1017,0 10 -
18.01.2019 02:00:00 12,0 9,0 15 8 SO 1017,5 10 -
18.01.2019 01:00:00 11,8 8,8 15 8 SO 1017,5 10 -
18.01.2019 00:00:00 11,0 8,2 16 9 SO 1018,4 10 -
17.01.2019 23:00:00 11,0 8,2 11 6 SO 1018,5 10 -
17.01.2019 22:00:00 11,0 8,4 13 7 SO 1018,5 10 -
17.01.2019 21:00:00 10,8 8,7 11 6 SSO 1018,5 10 -
17.01.2019 20:00:00 10,2 8,3 11 6 SSO 1018,7 10 -
17.01.2019 19:00:00 10,4 8,5 15 8 SSO 1018,6 10 -
17.01.2019 18:00:00 10,6 8,2 13 7 SSO 1018,6 10 -
17.01.2019 17:00:00 10,6 8,5 15 8 SO 1018,6 15 0
17.01.2019 16:00:00 10,8 8,7 13 7 SSO 1018,6 15 60
17.01.2019 15:00:00 10,8 8,9 15 8 SSE 1019,1 15 60
17.01.2019 14:00:00 11,0 8,9 16 9 S 1019,3 15 60
17.01.2019 13:00:00 11,0 9,1 15 8 SSO 1019,6 15 60
17.01.2019 12:00:00 11,0 5,7 16 9 SSO 1020,4 15 60
17.01.2019 11:00:00 11,0 8,2 15 8 SSO 1021,0 15 60
17.01.2019 10:00:00 10,0 7,4 13 7 SO 1021,1 15 60
17.01.2019 09:00:00 10,0 7,8 9 5 SSE 1020,7 15 60
17.01.2019 08:00:00 9,8 7,4 5 3 SE 1020,7 15 30
17.01.2019 07:00:00 9,2 7,0 5 3 E 1020,8 15 -
17.01.2019 06:00:00 10,0 6,4 4 2 ENE 1020,9 12 -
17.01.2019 05:00:00 10,0 5,8 4 2 SE 1021,6 12 -

tt = Temperatura
td = dewpoint
ff = velocità del vento
dd = direzione del vento
ppp = reduced air pressure
vv = visibility
sd = ore di luce

Stazioni seguenti

WeatherPro
AMSI
MeteoEarth